Regional Weather Roundup
Issued by NWS

Home | Current Version | Previous Version | Text Only | Print | Product List | Glossary On
Versions: 1 2 3 4 5 6 7 8 9 10 11 12 13 14 15 16 17 18 19 20 21 22 23 24 25 26 27 28 29 30 31 32 33 34 35 36 37 38 39 40 41 42 43 44 45 46 47 48 49 50
000
ASUS45 KSLC 260010
RWRUT

UTAH REGIONAL WEATHER ROUNDUP
NATIONAL WEATHER SERVICE SALT LAKE CITY UT
600 PM MDT WED MAY 25 2016

UTZ001>011-023>025-260100-

NORTHERN UTAH

CITY           SKY/WX    TMP DP  RH WIND       PRES   REMARKS
BRIGHAM CITY     N/A     60  41  49 N18       30.03S
HILL AFB       PTSUNNY   64  37  38 NW12      30.01S
LOGAN          CLOUDY    56  44  64 NW15      30.04R
OGDEN          PTSUNNY   62  42  47 NW16G24   30.00R
PROVO AIRPORT  PTSUNNY   64  36  34 NW12G17   29.99S
SALT LAKE CITY PTSUNNY   67  34  29 SE9       29.98F
VERNAL         PTSUNNY   67  25  20 VRB5      29.98S
WENDOVER       CLOUDY    55  39  54 N15       30.04R
HEBER CITY     PTSUNNY   61  32  33 SW8       30.00S
WEST JORDAN    SUNNY     61  37  41 CALM      30.01S

$$

UTZ012>022-026-027-260100-

SOUTHERN/CENTRAL UTAH

CITY           SKY/WX    TMP DP  RH WIND       PRES   REMARKS
BLANDING       SUNNY     70  15  12 SE3       30.07F
BRYCE CANYON   MOSUNNY   59  10  14 SE10      30.07F
CEDAR CITY     MOSUNNY   69  13  11 SW15G21   29.96S
DELTA          MOSUNNY   68  32  26 N16       29.95S
HANKSVILLE     SUNNY     77  12   8 S13G21    29.92F
MILFORD        MOSUNNY   72  17  12 MISG      29.93S
MOAB/CYNLANDS  SUNNY     76   8   7 SW17G24   29.90F
PRICE          MOSUNNY   63  22  20 NW7       29.98F
ST GEORGE      MOCLDY    79  19  11 W12       29.89F
KANAB          PTSUNNY   72  18  13 W13       29.98F

$$

REGIONAL REPORTS     COLORADO/ARIZONA

CITY           SKY/WX    TMP DP  RH WIND       PRES   REMARKS
CRAIG, CO      MOSUNNY   63  27  25 W13       30.01S
GRAND JUNCTION SUNNY     72  17  12 VRB5      29.95S
RIFLE          SUNNY     72  21  14 W13G24    29.97S
MONTROSE       CLOUDY    72   9   8 SW13G23   30.01R
CORTEZ         SUNNY     72  14  11 S7        30.00F
PAGE, AZ       SUNNY     78  12   8 S8        29.89F
GRAND CANYON   CLOUDY    64  16  15 S14G25    30.04F
KINGMAN        SUNNY     76  17  11 SW21G30   29.92F
FLAGSTAFF      SUNNY     60   9  13 SW18G26   30.09R

$$

REGIONAL REPORTS    NEVADA/IDAHO/WYOMING

CITY           SKY/WX    TMP DP  RH WIND       PRES   REMARKS
LAS VEGAS, NV  MOSUNNY   80  22  11 E12       29.81F
ELY            PTSUNNY   52  34  50 W10       30.05S
ELKO           CLOUDY    59  39  47 E6        30.06S
POCATELLO, ID  CLOUDY    57  44  62 CALM      30.03S THUNDER
BURLEY         MOSUNNY   63  41  44 SW12      30.00S
EVANSTON, WY   CLOUDY    54  33  45 CALM      30.07S
ROCK SPRINGS   CLOUDY    54  34  46 SW16G24   30.08R
KEMMERER         N/A     48  34  57 W10       30.09F

$$



USA.gov is the U.S. government's official web portal to all federal, state and local government web resources and services.